x

Capel Curig Saws (03305) Weather Station

12:00pm - Wed 10th Feb 2016 All times are GMT.

  • Wind
    3mph
  • Air Temp 43°f
  • Sea Pressure 999mb
  • Capel Curig Saws
  • Capel Curig Saws

More Historic Weather Station data

Upgrade to MSW Pro to gain access to the past 30 days of data for over 8000 Wavebouys and Weather Stations around the globe.

Join Pro

Comparision Forecast

View Surf forecast
   
Wed 02/10 12:00pm 3
mph
999mb 43f
10:00am 5
mph
997mb 41f
9:00am 7
mph
996mb 41f
5:00am 14
mph
993mb 41f
4:00am 14 36 mph 992mb 41f
3:00am 21 43 mph 992mb 41f
2:00am 19 34 mph 991mb 41f
1:00am 22 31 mph 990mb 41f
12:00am 15 31 mph 990mb 40f
Tue 02/09 11:00pm 14 32 mph 989mb 41f
10:00pm 14 41 mph 987mb 42f
9:00pm 7
mph
987mb 40f
8:00pm 13
mph
986mb 39f
7:00pm 15
mph
985mb 39f
6:00pm 18 33 mph 984mb 37f
5:00pm 24 32 mph 983mb 37f
4:00pm 25 39 mph 983mb 37f
3:00pm 28 43 mph 982mb 38f
2:00pm 22 32 mph 982mb 37f
1:00pm 19 36 mph 983mb 39f
12:00pm 22 37 mph 983mb 38f
11:00am 22 32 mph 983mb 39f
10:00am 19 32 mph 984mb 38f
9:00am 24 33 mph 984mb 37f
8:00am 17 29 mph 984mb 37f
7:00am 18 37 mph 984mb 37f
6:00am 21 36 mph 985mb 38f
5:00am 19 39 mph 985mb 38f
4:00am 28 41 mph 986mb 39f
3:00am 29 43 mph 987mb 39f
2:00am 30 48 mph 987mb 38f
1:00am 29 41 mph 988mb 39f
12:00am 24 48 mph 988mb 40f
Mon 02/08 11:00pm 26 38 mph 988mb 40f
10:00pm 26 41 mph 989mb 40f
9:00pm 30 56 mph 988mb 41f
8:00pm 40 61 mph 987mb 42f
7:00pm 44 63 mph 987mb 42f
6:00pm 47 61 mph 985mb 42f
5:00pm 43 67 mph 984mb 43f
4:00pm 46 63 mph 982mb 43f
3:00pm 46 64 mph 980mb 44f
2:00pm 44 62 mph 978mb 44f
1:00pm 38 60 mph 976mb 44f
12:00pm 40 59 mph 975mb 43f
11:00am 41 55 mph 974mb 43f
10:00am 34 64 mph 973mb 42f
9:00am 34 60 mph 971mb 42f
8:00am 37 56 mph 971mb 42f
7:00am 40 55 mph 972mb 43f
6:00am 34 57 mph 972mb 43f
5:00am 36 57 mph 973mb 43f
4:00am 33 51 mph 974mb 43f
3:00am 33 57 mph 974mb 42f
2:00am 32 47 mph 974mb 42f
1:00am 26 46 mph 976mb 42f
12:00am 30 45 mph 976mb 42f
Sun 02/07 11:00pm 24 46 mph 977mb 42f
10:00pm 26 44 mph 976mb 44f
9:00pm 31 55 mph 976mb 46f
8:00pm 38 54 mph 976mb 46f
7:00pm 32 64 mph 977mb 44f
6:00pm 29 60 mph 980mb 41f
5:00pm 45 60 mph 982mb 41f
4:00pm 33 49 mph 984mb 40f
3:00pm 36 56 mph 985mb 40f
2:00pm 39 53 mph 986mb 43f
1:00pm 36 56 mph 986mb 43f
12:00pm 34 51 mph 987mb 43f
11:00am 33 44 mph 987mb 42f
10:00am 25 40 mph 987mb 41f
9:00am 26 40 mph 986mb 40f
7:00am 29 44 mph 984mb 39f
6:00am 30 38 mph 983mb 40f
5:00am 21 34 mph 983mb 40f
4:00am 25 37 mph 983mb 40f
3:00am 26 36 mph 983mb 40f
2:00am 25 37 mph 983mb 40f
1:00am 29 39 mph 982mb 41f
12:00am 26 39 mph 982mb 42f
Sat 02/06 11:00pm 28 41 mph 981mb 42f
10:00pm 26 41 mph 981mb 42f
9:00pm 29 40 mph 981mb 43f
8:00pm 26 41 mph 981mb 43f
7:00pm 24 41 mph 980mb 44f
6:00pm 32 48 mph 980mb 45f
5:00pm 45 63 mph 979mb 47f
4:00pm 38 59 mph 979mb 48f
3:00pm 34 57 mph 981mb 48f